EW3721 Weather Reports


Display with metric or nautical units.
time (UTC)temp
F
wind
direction
speed
MPH
gust
MPH
rain 1hr
in
rain 24hr
in
rain mn
in
humidity
%
barometer
mb
20240226145139 36 195 1.0 6.0 0.01 0.02 0.02 91 1017.6
20240226144138 36 189 1.0 3.0 0.02 0.02 0.02 90 1017.5
20240226142141 36 194 1.0 2.0 0.02 0.02 0.02 90 1017.5
20240226141141 35 195 0.0 0.0 0.02 0.02 0.02 89 1017.8
20240226140144 35 194 0.0 2.0 0.01 0.01 0.01 89 1017.9
20240226135140 35 195 1.0 3.0 0.01 0.01 0.01 89 1017.8
20240226134138 34 211 1.0 3.0 0.00 0.00 0.00 89 1018.0
20240226133137 34 214 1.0 3.0 0.00 0.00 0.00 89 1018.3
20240226132138 33 221 1.0 3.0 0.00 0.00 0.00 90 1018.6
20240226130147 32 194 2.0 7.0 0.00 0.00 0.00 92 1018.3
20240226125140 31 226 2.0 3.0 0.00 0.00 0.00 92 1018.2
20240226123138 29 251 0.0 0.0 0.00 0.00 0.00 91 1018.0
20240226122138 29 250 0.0 0.0 0.00 0.00 0.00 91 1017.8
20240226121138 29 250 0.0 0.0 0.00 0.00 0.00 90 1017.7
20240226120140 29 250 0.0 0.0 0.00 0.00 0.00 89 1017.6
20240226115137 29 250 0.0 0.0 0.00 0.00 0.00 89 1017.7
20240226114138 29 251 0.0 0.0 0.00 0.00 0.00 89 1017.6
20240226113137 29 251 0.0 0.0 0.00 0.00 0.00 89 1017.6
20240226112137 29 251 0.0 0.0 0.00 0.00 0.00 89 1017.7
20240226111139 29 251 0.0 0.0 0.00 0.00 0.00 88 1017.6
20240226110144 29 251 0.0 0.0 0.00 0.00 0.00 88 1017.5
20240226105139 29 250 0.0 0.0 0.00 0.00 0.00 88 1017.5
20240226104139 29 250 0.0 0.0 0.00 0.00 0.00 89 1017.5
20240226103138 30 250 0.0 0.0 0.00 0.00 0.00 89 1017.7
20240226102137 30 250 0.0 1.0 0.00 0.00 0.00 89 1017.8
20240226101138 30 251 0.0 1.0 0.00 0.00 0.00 88 1017.8
20240226100139 30 251 0.0 1.0 0.00 0.00 0.00 88 1017.7
20240226095136 30 251 1.0 2.0 0.00 0.00 0.00 88 1017.8
20240226094136 30 251 0.0 0.0 0.00 0.00 0.00 88 1017.7
20240226093141 30 251 0.0 0.0 0.00 0.00 0.00 88 1017.7
20240226092140 30 251 0.0 0.0 0.00 0.00 0.00 88 1018.0
20240226091139 30 251 0.0 0.0 0.00 0.00 0.00 89 1018.0
20240226090142 30 251 0.0 2.0 0.00 0.00 0.00 90 1018.1
20240226085138 30 190 0.0 2.0 0.00 0.00 0.00 91 1018.1
20240226084137 30 190 0.0 2.0 0.00 0.00 0.00 92 1018.2
20240226082137 30 188 0.0 2.0 0.00 0.00 0.00 93 1018.5
20240226081137 29 225 0.0 3.0 0.00 0.00 0.00 93 1018.7
20240226080144 29 224 1.0 5.0 0.00 0.00 0.00 93 1018.6
20240226075136 28 206 0.0 2.0 0.00 0.00 0.00 93 1018.8
20240226074136 28 207 0.0 2.0 0.00 0.00 0.00 93 1018.7
20240226073136 28 207 0.0 2.0 0.00 0.00 0.00 93 1018.7
20240226072138 28 207 0.0 3.0 0.00 0.00 0.00 92 1018.8
20240226070144 27 204 1.0 3.0 0.00 0.00 0.00 92 1018.8
20240226064136 27 217 1.0 2.0 0.00 0.00 0.00 92 1018.6
20240226063135 27 223 0.0 2.0 0.00 0.00 0.00 92 1018.8
20240226062139 26 223 1.0 2.0 0.00 0.00 0.00 91 1018.6
20240226061139 26 223 1.0 2.0 0.00 0.00 0.00 91 1018.6
20240226060137 26 223 0.0 2.0 0.00 0.00 0.00 91 1018.7
20240226055138 26 223 1.0 2.0 0.00 0.00 0.00 90 1018.7
20240226054140 26 223 0.0 3.0 0.00 0.00 0.00 90 1018.7
20240226053142 26 222 0.0 2.0 0.00 0.00 0.00 89 1018.6
20240226052139 26 223 1.0 2.0 0.00 0.00 0.00 89 1018.7
20240226050139 26 222 0.0 0.0 0.00 0.00 0.00 88 1018.5
20240226045136 26 222 0.0 2.0 0.00 0.00 0.00 88 1018.7
20240226044136 26 222 1.0 3.0 0.00 0.00 0.00 87 1018.8
20240226043135 26 222 0.0 3.0 0.00 0.00 0.00 86 1018.8
20240226042135 26 222 0.0 0.0 0.00 0.00 0.00 86 1019.1
20240226041135 27 222 0.0 0.0 0.00 0.00 0.00 86 1019.2
20240226035139 27 222 0.0 0.0 0.00 0.00 0.00 84 1019.5
20240226034138 27 222 0.0 0.0 0.00 0.00 0.00 83 1019.5
20240226033139 27 193 0.0 0.0 0.00 0.00 0.00 83 1019.4
20240226032137 27 193 0.0 0.0 0.00 0.00 0.00 82 1019.6
20240226031137 28 193 0.0 0.0 0.00 0.00 0.00 81 1019.6
20240226030138 28 193 0.0 0.0 0.00 0.00 0.00 80 1019.7
20240226025135 28 193 0.0 0.0 0.00 0.00 0.00 80 1019.8
20240226024135 29 193 0.0 0.0 0.00 0.00 0.00 80 1020.0
20240226023134 29 193 0.0 0.0 0.00 0.00 0.00 80 1019.9
20240226022137 29 193 0.0 0.0 0.00 0.00 0.00 79 1019.9
20240226021134 29 193 0.0 0.0 0.00 0.00 0.00 79 1019.8
20240226015136 29 193 1.0 3.0 0.00 0.00 0.00 78 1019.8
20240226014135 29 214 1.0 6.0 0.00 0.00 0.00 78 1019.8
20240226013135 28 250 1.0 3.0 0.00 0.00 0.00 76 1019.8
20240226012134 28 194 2.0 5.0 0.00 0.00 0.00 74 1019.5
20240226011135 28 202 0.0 3.0 0.00 0.00 0.00 72 1019.5
20240226010141 28 211 0.0 2.0 0.00 0.00 0.00 71 1019.5
20240226005137 28 211 0.0 1.0 0.00 0.00 0.00 70 1019.4
20240226004137 29 211 0.0 2.0 0.00 0.00 0.00 69 1019.5
20240226002135 29 211 0.0 2.0 0.00 0.00 0.00 65 1019.6
20240226001136 30 203 0.0 3.0 0.00 0.00 0.00 64 1019.6
20240226000137 30 202 0.0 1.0 0.00 0.00 0.00 61 1019.6
20240225235136 30 202 0.0 1.0 0.00 0.00 0.00 58 1019.5
20240225233135 31 202 0.0 1.0 0.00 0.00 0.00 55 1019.4
20240225232141 31 202 1.0 2.0 0.00 0.00 0.00 54 1019.4
20240225231138 31 207 1.0 2.0 0.00 0.00 0.00 53 1019.4
20240225230140 32 207 0.0 2.0 0.00 0.00 0.00 54 1019.4
20240225225138 32 189 1.0 3.0 0.00 0.00 0.00 52 1019.4
20240225224134 32 198 0.0 1.0 0.00 0.00 0.00 50 1019.3
20240225223135 33 198 0.0 1.0 0.00 0.00 0.00 50 1019.3
20240225222134 33 198 1.0 3.0 0.00 0.00 0.00 51 1019.2
20240225221134 33 200 1.0 3.0 0.00 0.00 0.00 49 1019.2
20240225215138 34 210 2.0 6.0 0.00 0.00 0.00 48 1019.2
20240225214134 34 188 3.0 6.0 0.00 0.00 0.00 49 1019.1
20240225212133 34 195 3.0 9.0 0.00 0.00 0.00 49 1019.1
20240225210136 34 173 1.0 10.0 0.00 0.00 0.00 49 1019.2
20240225205133 35 192 3.0 9.0 0.00 0.00 0.00 49 1019.2
20240225204134 35 183 3.0 10.0 0.00 0.00 0.00 47 1019.2
20240225203134 35 189 2.0 8.0 0.00 0.00 0.00 49 1019.3
20240225202134 35 209 4.0 7.0 0.00 0.00 0.00 52 1019.5
20240225200136 35 209 3.0 10.0 0.00 0.00 0.00 54 1019.5
20240225195134 35 196 4.0 9.0 0.00 0.00 0.00 55 1019.6
20240225194133 36 172 2.0 7.0 0.00 0.00 0.00 53 1019.7
20240225193132 35 208 3.0 8.0 0.00 0.00 0.00 53 1019.7
20240225192133 35 200 3.0 10.0 0.00 0.00 0.00 54 1019.7
20240225184136 35 183 4.0 12.0 0.00 0.00 0.00 53 1020.0
20240225182134 36 203 3.0 8.0 0.00 0.00 0.00 54 1020.2
20240225181133 36 184 4.0 10.0 0.00 0.00 0.00 54 1020.3
20240225180135 36 162 6.0 12.0 0.00 0.00 0.00 51 1020.4
20240225175132 37 193 2.0 9.0 0.00 0.00 0.00 49 1020.4
20240225174133 37 210 2.0 8.0 0.00 0.00 0.00 45 1020.6
20240225173132 36 207 3.0 7.0 0.00 0.00 0.00 48 1020.6
20240225172133 36 192 2.0 9.0 0.00 0.00 0.00 45 1020.8
20240225171136 35 180 3.0 7.0 0.00 0.00 0.00 46 1020.9
20240225170142 35 217 2.0 7.0 0.00 0.00 0.00 45 1021.0
20240225165135 34 175 2.0 3.0 0.00 0.00 0.00 47 1021.1
20240225164136 34 223 1.0 5.0 0.00 0.00 0.00 46 1021.4
20240225163133 33 203 1.0 5.0 0.00 0.00 0.00 46 1021.5
20240225162132 33 212 4.0 7.0 0.00 0.00 0.00 45 1021.6
20240225161132 33 233 2.0 5.0 0.00 0.00 0.00 46 1021.6
20240225160134 33 193 1.0 5.0 0.00 0.00 0.00 45 1021.7
20240225153132 31 179 2.0 6.0 0.00 0.00 0.00 45 1021.9
20240225150135 29 137 4.0 9.0 0.00 0.00 0.00 45 1022.0